TimeCDT,TemperatureF,Dew PointF,Humidity,Sea Level PressureIn,VisibilityMPH,Wind Direction,Wind SpeedMPH,Gust SpeedMPH,PrecipitationIn,Events,Conditions,WindDirDegrees,DateUTC
12:12 AM,32.0,32.0,100,29.73,7.0,Calm,Calm,-,N/A,,Clear,0,2013-10-07 05:12:00
12:33 AM,32.0,32.0,100,29.72,10.0,WSW,3.5,-,N/A,,Clear,250,2013-10-07 05:33:00
12:53 AM,32.0,32.0,100,29.72,10.0,WSW,3.5,-,N/A,,Clear,250,2013-10-07 05:53:00
1:12 AM,32.0,32.0,100,29.73,10.0,WSW,3.5,-,N/A,,Clear,250,2013-10-07 06:12:00
1:33 AM,33.8,33.8,100,29.73,10.0,Calm,Calm,-,N/A,,Clear,0,2013-10-07 06:33:00
1:53 AM,33.8,33.8,100,29.73,10.0,Calm,Calm,-,N/A,,Clear,0,2013-10-07 06:53:00
2:12 AM,35.6,33.8,93,29.73,10.0,West,3.5,-,N/A,,Clear,260,2013-10-07 07:12:00
2:33 AM,35.6,35.6,100,29.73,10.0,WSW,3.5,-,N/A,,Clear,250,2013-10-07 07:33:00
2:53 AM,35.6,35.6,100,29.73,10.0,Calm,Calm,-,N/A,,Clear,0,2013-10-07 07:53:00
3:12 AM,37.4,35.6,93,29.73,10.0,West,4.6,-,N/A,,Clear,260,2013-10-07 08:12:00
3:33 AM,35.6,35.6,100,29.73,10.0,WSW,4.6,-,N/A,,Clear,250,2013-10-07 08:33:00
3:53 AM,37.4,37.4,100,29.74,10.0,Calm,Calm,-,N/A,,Clear,0,2013-10-07 08:53:00
4:12 AM,35.6,35.6,100,29.74,10.0,Calm,Calm,-,N/A,,Clear,0,2013-10-07 09:12:00
4:33 AM,33.8,33.8,100,29.75,5.0,Calm,Calm,-,N/A,,Clear,0,2013-10-07 09:33:00
4:53 AM,33.8,33.8,100,29.75,10.0,Calm,Calm,-,N/A,,Clear,0,2013-10-07 09:53:00
5:12 AM,33.8,33.8,100,29.76,10.0,Calm,Calm,-,N/A,,Clear,0,2013-10-07 10:12:00
5:33 AM,32.0,32.0,100,29.77,10.0,Calm,Calm,-,N/A,,Clear,0,2013-10-07 10:33:00
5:53 AM,33.8,33.8,100,29.77,10.0,Calm,Calm,-,N/A,,Clear,0,2013-10-07 10:53:00
6:12 AM,32.0,32.0,100,29.78,10.0,Calm,Calm,-,N/A,,Clear,0,2013-10-07 11:12:00
6:33 AM,32.0,32.0,100,29.78,10.0,Calm,Calm,-,N/A,,Clear,0,2013-10-07 11:33:00
6:52 AM,32.0,30.2,93,29.79,10.0,Calm,Calm,-,N/A,,Clear,0,2013-10-07 11:52:00
7:13 AM,33.8,33.8,100,29.80,5.0,Calm,Calm,-,N/A,,Clear,0,2013-10-07 12:13:00
7:33 AM,33.8,33.8,100,29.81,1.8,Calm,Calm,-,N/A,,Mist,0,2013-10-07 12:33:00
7:53 AM,33.8,33.8,100,29.82,4.0,Calm,Calm,-,N/A,,Clear,0,2013-10-07 12:53:00
8:12 AM,33.8,33.8,100,29.82,7.0,Calm,Calm,-,N/A,,Clear,0,2013-10-07 13:12:00
8:33 AM,37.4,37.4,100,29.82,7.0,Calm,Calm,-,N/A,,Clear,0,2013-10-07 13:33:00
8:53 AM,39.2,39.2,100,29.83,10.0,Calm,Calm,-,N/A,,Clear,0,2013-10-07 13:53:00
9:12 AM,42.8,42.8,100,29.83,10.0,Calm,Calm,-,N/A,,Clear,0,2013-10-07 14:12:00
9:33 AM,44.6,42.8,93,29.84,10.0,Calm,Calm,-,N/A,,Scattered Clouds,0,2013-10-07 14:33:00
9:53 AM,46.4,42.8,87,29.85,10.0,West,6.9,-,N/A,,Scattered Clouds,280,2013-10-07 14:53:00
10:12 AM,46.4,42.8,87,29.85,10.0,West,5.8,-,N/A,,Scattered Clouds,280,2013-10-07 15:12:00
10:32 AM,48.2,42.8,82,29.85,10.0,WNW,8.1,-,N/A,,Scattered Clouds,300,2013-10-07 15:32:00
10:53 AM,48.2,42.8,82,29.86,10.0,NW,9.2,-,N/A,,Mostly Cloudy,310,2013-10-07 15:53:00
11:13 AM,50.0,42.8,76,29.86,10.0,NW,4.6,-,N/A,,Mostly Cloudy,320,2013-10-07 16:13:00
11:32 AM,50.0,42.8,76,29.87,10.0,NW,8.1,-,N/A,,Mostly Cloudy,310,2013-10-07 16:32:00
11:53 AM,51.8,42.8,71,29.87,10.0,WNW,5.8,16.1,N/A,,Mostly Cloudy,300,2013-10-07 16:53:00
12:13 PM,51.8,41.0,67,29.87,10.0,NW,9.2,-,N/A,,Mostly Cloudy,320,2013-10-07 17:13:00
12:33 PM,51.8,41.0,67,29.87,10.0,NW,4.6,10.4,N/A,,Mostly Cloudy,310,2013-10-07 17:33:00
12:52 PM,53.6,39.2,58,29.87,10.0,WNW,8.1,-,N/A,,Mostly Cloudy,290,2013-10-07 17:52:00
1:13 PM,53.6,39.2,58,29.86,10.0,WNW,10.4,16.1,N/A,,Overcast,290,2013-10-07 18:13:00
1:33 PM,53.6,37.4,54,29.86,10.0,WNW,6.9,-,N/A,,Mostly Cloudy,290,2013-10-07 18:33:00
1:52 PM,53.6,39.2,58,29.86,10.0,WNW,8.1,17.3,N/A,,Scattered Clouds,300,2013-10-07 18:52:00
2:13 PM,55.4,35.6,47,29.87,10.0,WNW,11.5,-,N/A,,Scattered Clouds,290,2013-10-07 19:13:00
2:33 PM,55.4,37.4,51,29.87,10.0,West,10.4,18.4,N/A,,Clear,280,2013-10-07 19:33:00
2:52 PM,53.6,37.4,54,29.88,10.0,West,6.9,18.4,N/A,,Scattered Clouds,280,2013-10-07 19:52:00
3:13 PM,55.4,37.4,51,29.87,10.0,WNW,8.1,-,N/A,,Scattered Clouds,300,2013-10-07 20:13:00
3:33 PM,55.4,35.6,47,29.87,10.0,NW,10.4,-,N/A,,Scattered Clouds,310,2013-10-07 20:33:00
3:52 PM,57.2,37.4,48,29.87,10.0,NW,9.2,-,N/A,,Mostly Cloudy,310,2013-10-07 20:52:00
4:13 PM,57.2,35.6,44,29.87,10.0,West,11.5,19.6,N/A,,Mostly Cloudy,270,2013-10-07 21:13:00
4:33 PM,55.4,37.4,51,29.88,10.0,WNW,5.8,-,N/A,,Clear,300,2013-10-07 21:33:00
4:52 PM,53.6,35.6,51,29.89,10.0,West,8.1,16.1,N/A,,Scattered Clouds,270,2013-10-07 21:52:00
5:13 PM,55.4,35.6,47,29.88,10.0,WNW,6.9,-,N/A,,Clear,290,2013-10-07 22:13:00
5:33 PM,53.6,35.6,51,29.89,10.0,WNW,8.1,-,N/A,,Clear,290,2013-10-07 22:33:00
5:53 PM,53.6,35.6,51,29.89,10.0,West,8.1,-,N/A,,Clear,280,2013-10-07 22:53:00
6:12 PM,51.8,35.6,54,29.89,10.0,West,3.5,-,N/A,,Clear,270,2013-10-07 23:12:00
6:33 PM,50.0,35.6,58,29.89,10.0,Calm,Calm,-,N/A,,Clear,0,2013-10-07 23:33:00
6:53 PM,46.4,37.4,71,29.90,10.0,Calm,Calm,-,N/A,,Clear,0,2013-10-07 23:53:00
7:12 PM,44.6,37.4,76,29.91,10.0,Calm,Calm,-,N/A,,Clear,0,2013-10-08 00:12:00
7:33 PM,41.0,37.4,87,29.91,10.0,Calm,Calm,-,N/A,,Clear,0,2013-10-08 00:33:00
7:53 PM,39.2,37.4,93,29.92,10.0,Calm,Calm,-,N/A,,Clear,0,2013-10-08 00:53:00
8:12 PM,39.2,35.6,87,29.92,10.0,Calm,Calm,-,N/A,,Clear,0,2013-10-08 01:12:00
8:33 PM,37.4,35.6,93,29.93,10.0,Calm,Calm,-,N/A,,Clear,0,2013-10-08 01:33:00
8:53 PM,37.4,35.6,93,29.92,10.0,Calm,Calm,-,N/A,,Clear,0,2013-10-08 01:53:00
9:12 PM,37.4,35.6,93,29.93,10.0,Calm,Calm,-,N/A,,Clear,0,2013-10-08 02:12:00
9:33 PM,37.4,35.6,93,29.93,10.0,Calm,Calm,-,N/A,,Clear,0,2013-10-08 02:33:00
9:53 PM,35.6,35.6,100,29.93,10.0,Calm,Calm,-,N/A,,Clear,0,2013-10-08 02:53:00
10:12 PM,35.6,33.8,93,29.93,10.0,ESE,3.5,-,N/A,,Clear,120,2013-10-08 03:12:00
10:33 PM,35.6,33.8,93,29.93,10.0,Calm,Calm,-,N/A,,Clear,0,2013-10-08 03:33:00
10:53 PM,33.8,32.0,93,29.93,10.0,Calm,Calm,-,N/A,,Clear,0,2013-10-08 03:53:00
11:12 PM,33.8,32.0,93,29.93,10.0,Calm,Calm,-,N/A,,Clear,0,2013-10-08 04:12:00
11:33 PM,32.0,32.0,100,29.93,10.0,Calm,Calm,-,N/A,,Clear,0,2013-10-08 04:33:00
11:53 PM,33.8,32.0,93,29.94,10.0,Calm,Calm,-,N/A,,Clear,0,2013-10-08 04:53:00